[[{"header":{"parameterUnit":"m.s-1","parameterCategory":1,"la1":30.2991,"la2":30.254,"lo1":-89.0895,"lo2":-89.0444,"dy":0.0017,"dx":0.0017,"nx":28,"ny":28,"refTime":"2024-07-09T09:00:00:Z","depth":0,"parameterNumber":2,"parameterNumberName":"U-component_of_WINDS"},"data":[0,0,0,0,0,0,0,0,0,0,0,0,0,0,0,0,0,0,0,0,0,0,0,0,0,0,0,0,0,0,0,0,0,0,0,0,0,0,0,0,0,0,0,0,0,0,0,0,0,0,0,0,0,0,0,0,0,0,2.664,2.664,0,2.6633,2.6633,2.6633,2.6576,2.6574,2.6573,2.6572,2.6564,2.6565,2.6566,0,0,0,0,0,0,0,0,0,0,0,0,0,2.6606,2.6607,2.664,2.664,2.664,2.6633,2.6633,2.6633,2.6576,2.6574,2.6572,2.6571,2.6563,2.6565,2.6566,0,0,0,0,0,0,0,0,0,0,0,0,0,2.6612,2.6608,2.664,2.6611,2.6608,2.6633,2.6633,2.6633,2.6576,2.6574,2.6572,2.657,2.6563,2.6565,2.6566,2.6618,0,0,2.6571,2.6572,0,0,0,0,0,0,0,0,2.6612,2.6614,2.6615,2.6613,2.661,2.6603,2.6618,2.6628,2.6577,2.6588,2.6571,2.6569,2.6579,2.6579,2.6582,2.6618,2.6618,2.6571,2.6572,2.6573,2.6574,0,0,0,0,0,0,0,2.6612,2.6614,2.6637,2.6616,2.6612,2.6598,2.6597,2.6619,2.6595,2.6587,2.6583,2.6583,2.6577,2.6581,2.6581,2.6617,2.6571,2.6573,2.6574,2.6574,2.6696,2.6698,0,0,0,0,0,0,2.6615,2.6614,2.6638,2.6637,2.6606,2.6601,2.6599,2.6607,2.6595,2.6591,2.6585,2.658,2.6579,2.6579,2.6581,2.6641,2.6573,2.6575,2.6576,2.6694,2.6697,2.6699,0,0,0,0,0,0,2.6615,2.6618,2.6638,2.6624,2.6626,2.6604,2.6613,2.6608,2.6612,2.6593,2.6588,2.6593,2.6577,2.6579,2.6609,2.6639,2.6575,2.6577,2.6691,2.6695,2.6698,2.6761,0,0,0,0,0,0,2.6614,2.6618,2.6637,2.6625,2.6627,2.6667,2.6615,2.661,2.6615,2.6609,2.66,2.6596,2.6576,2.6607,2.6611,2.6641,2.6578,2.6688,2.6693,2.6697,2.6756,2.6766,2.6775,0,0,0,0,0,2.6613,2.6655,2.6639,2.6642,2.665,2.6668,2.6669,2.6645,2.6618,2.6637,2.6625,2.6596,2.6636,2.6611,2.6615,2.6645,2.6686,2.6692,2.6696,2.6752,2.6764,2.6774,0,0,0,0,0,0,2.6672,2.6653,2.6634,2.6674,2.6673,2.6659,2.6682,2.6659,2.6665,2.6659,2.6629,2.6627,2.6663,2.6657,2.663,2.6695,2.6656,2.6662,2.6697,2.6709,2.6718,2.6718,2.6579,0,0,0,0,0,2.6689,2.6705,2.6689,2.6725,2.6726,2.6704,2.6711,2.6693,2.6691,2.669,2.668,2.6679,2.6691,2.67,2.671,2.6756,2.6752,2.6779,2.6788,2.6796,2.6801,2.6824,2.6835,2.6716,2.6716,2.6715,0,0,2.6725,2.6717,2.6729,2.6737,2.6734,2.6751,2.6704,2.6725,2.6737,2.6693,2.6721,2.6714,2.6711,2.675,2.6766,2.6746,2.6833,2.6802,2.6808,2.6809,2.683,2.6842,2.6852,2.6719,2.6718,2.6718,0,0,2.68,2.6796,2.6826,2.6824,2.6821,2.6806,2.6814,2.6803,2.6797,2.6825,2.6792,2.6807,2.6829,2.6828,2.6831,2.6907,2.688,2.6911,2.6959,2.6982,2.6992,2.7,2.7026,2.7036,2.6917,2.6917,2.6917,0,2.6845,2.687,2.6844,2.6867,2.6871,2.6833,2.6863,2.6862,2.6863,2.6866,2.6844,2.6871,2.6866,2.6904,2.6923,2.6926,2.6934,2.6911,2.6992,2.7,2.7008,2.7032,2.7043,2.692,2.692,2.692,2.6919,0,2.6926,2.6944,2.6968,2.6969,2.6977,2.7003,2.6981,2.6992,2.6974,2.6962,2.6991,2.6985,2.6993,2.7001,2.6983,2.7036,2.7024,2.6998,2.6958,2.7023,2.7046,2.7055,2.6926,2.6924,2.6923,2.6922,0,0,2.7035,2.7023,2.7032,2.7032,2.7026,2.7039,2.7065,2.7073,2.7082,2.7084,2.7104,2.7124,2.71,2.7103,2.7085,2.7106,2.7166,2.7077,2.7077,2.7093,2.7224,2.7242,2.7254,2.7149,2.7151,2.7152,2.7224,0,2.7106,2.7147,2.7125,2.717,2.7186,2.715,2.7172,2.7171,2.7161,2.7174,2.7163,2.7177,2.7145,2.7147,2.7166,2.7155,2.7192,2.7149,2.7167,2.7168,2.7167,2.7266,2.7285,2.7352,2.7232,2.7234,2.7235,0,2.7193,2.7199,2.7245,2.7237,2.7243,2.7263,2.7268,2.7281,2.728,2.7271,2.7275,2.7252,2.7276,2.7239,2.7271,2.7243,2.7249,2.7245,2.7247,2.7247,2.7204,2.7266,2.7373,2.7383,2.7249,2.7248,2.7247,0,2.7267,2.7287,2.7317,2.7318,2.7309,2.7324,2.7321,2.7317,2.7324,2.733,2.7334,2.7342,2.7347,2.7354,2.7334,2.7309,2.737,2.733,2.7363,2.7363,2.7376,2.7375,2.7484,2.7383,2.7382,2.7382,2.7382,0,2.7347,2.7376,2.735,2.7368,2.74,2.7375,2.7408,2.7401,2.7399,2.7415,2.7386,2.7402,2.7376,2.7389,2.7374,2.7403,2.7406,2.7399,2.7395,2.7401,2.7402,2.7403,2.7398,2.7385,2.7384,2.7384,2.7383,0,2.7434,2.7417,2.7447,2.7437,2.7435,2.7459,2.745,2.7467,2.7456,2.7477,2.7481,2.7464,2.7478,2.746,2.7473,2.7463,2.7502,2.7491,2.7503,2.7499,2.7532,2.7529,2.7644,2.7658,2.755,2.7551,2.7552,0,2.7485,2.7507,2.75,2.7509,2.7507,2.7523,2.7529,2.7507,2.7515,2.7515,2.7532,2.7544,2.7553,2.7578,2.7566,2.7576,2.7565,2.7605,2.7566,2.7572,2.7564,2.7562,2.7564,2.7612,2.7613,2.7614,2.7615,0,2.7578,2.7569,2.758,2.7589,2.7598,2.7603,2.7606,2.7615,2.7592,2.7603,2.7617,2.7624,2.7638,2.765,2.7657,2.7654,2.7631,2.7628,2.7636,2.7641,2.7647,2.7643,2.7523,2.7625,2.7624,2.7623,2.7623,2.7622,2.7648,2.7666,2.7663,2.7676,2.7677,2.7681,2.7696,2.7687,2.7699,2.7708,2.7695,2.7713,2.7712,2.7719,2.7719,2.7733,2.7716,2.7727,2.773,2.7733,2.7737,2.7646,2.7734,2.7734,2.7734,2.7733,2.7733,0,2.7738,2.7735,2.7748,2.7754,2.7764,2.7742,2.7745,2.7755,2.7772,2.7773,2.7782,2.7799,2.7812,2.7802,2.7812,2.7825,2.7815,2.7829,2.7826,2.7826,2.7753,2.7744,2.7837,2.7837,2.7837,2.7837,2.7837,2.7837,2.7786,2.7815,2.7806,2.7835,2.7832,2.785,2.7853,2.7857,2.7857,2.7878,2.7888,2.7882,2.7878,2.7888,2.7899,2.7895,2.79,2.7917,2.791,2.7842,2.7831,2.7821,2.7813,2.7919,2.7919,2.7982,2.7983,2.7983]},{"header":{"parameterUnit":"m.s-1","parameterCategory":1,"la1":30.2991,"la2":30.254,"lo1":-89.0895,"lo2":-89.0444,"dy":0.0017,"dx":0.0017,"nx":28,"ny":28,"refTime":"2024-07-09T09:00:00:Z","depth":0,"parameterNumber":3,"parameterNumberName":"V-component_of_WINDS"},"data":[0,0,0,0,0,0,0,0,0,0,0,0,0,0,0,0,0,0,0,0,0,0,0,0,0,0,0,0,0,0,0,0,0,0,0,0,0,0,0,0,0,0,0,0,0,0,0,0,0,0,0,0,0,0,0,0,0,0,0.8378,0.8378,0,0.8385,0.8385,0.8385,0.8401,0.8401,0.8402,0.8402,0.8408,0.8408,0.8408,0,0,0,0,0,0,0,0,0,0,0,0,0,0.8375,0.8375,0.8378,0.8378,0.8378,0.8385,0.8385,0.8385,0.8401,0.8401,0.8402,0.8402,0.8409,0.8408,0.8408,0,0,0,0,0,0,0,0,0,0,0,0,0,0.8379,0.8375,0.8378,0.8386,0.8387,0.8385,0.8385,0.8386,0.8401,0.8401,0.8402,0.8402,0.8409,0.8408,0.8408,0.8398,0,0,0.8408,0.8408,0,0,0,0,0,0,0,0,0.8379,0.8379,0.8385,0.8386,0.8387,0.8393,0.8387,0.839,0.8401,0.8396,0.8402,0.8402,0.8403,0.8403,0.8403,0.8398,0.8398,0.8408,0.8408,0.8408,0.8407,0,0,0,0,0,0,0,0.8378,0.8379,0.8381,0.8385,0.8386,0.839,0.8391,0.8388,0.8396,0.8396,0.8397,0.8398,0.8403,0.8404,0.8404,0.8399,0.8408,0.8408,0.8407,0.8407,0.8384,0.8384,0,0,0,0,0,0,0.8377,0.8378,0.838,0.8381,0.8384,0.8389,0.839,0.839,0.8397,0.8398,0.8398,0.8399,0.8404,0.8404,0.8404,0.8392,0.8408,0.8407,0.8407,0.8385,0.8384,0.8384,0,0,0,0,0,0,0.8377,0.8377,0.838,0.838,0.8381,0.8389,0.8389,0.839,0.8391,0.8398,0.8399,0.8396,0.8404,0.8404,0.8399,0.8392,0.8407,0.8407,0.8385,0.8385,0.8384,0.8368,0,0,0,0,0,0,0.8377,0.8377,0.8373,0.838,0.8381,0.8376,0.8388,0.839,0.839,0.8392,0.8397,0.8398,0.8404,0.8399,0.8399,0.8392,0.8407,0.8386,0.8385,0.8384,0.8369,0.8366,0.8364,0,0,0,0,0,0.8377,0.8368,0.8373,0.8373,0.8376,0.8375,0.8376,0.8383,0.839,0.8386,0.839,0.8398,0.8393,0.8399,0.8398,0.8392,0.8387,0.8385,0.8384,0.837,0.8367,0.8364,0,0,0,0,0,0,0.8361,0.8369,0.8375,0.8369,0.8371,0.8378,0.8373,0.838,0.838,0.8382,0.8391,0.8392,0.8385,0.8388,0.8394,0.8381,0.8391,0.839,0.838,0.8377,0.8375,0.8374,0.8407,0,0,0,0,0,0.8357,0.8355,0.8363,0.8356,0.8357,0.8365,0.8365,0.8371,0.8373,0.8374,0.8379,0.8381,0.838,0.8379,0.8378,0.8369,0.837,0.8364,0.8362,0.836,0.8359,0.8354,0.8351,0.838,0.838,0.838,0,0,0.8348,0.8352,0.8351,0.8353,0.8356,0.8354,0.8366,0.8363,0.8362,0.8374,0.8369,0.8372,0.8375,0.8368,0.8365,0.837,0.8351,0.8359,0.8357,0.8357,0.8352,0.835,0.8347,0.8379,0.8379,0.8379,0,0,0.8331,0.8334,0.8329,0.8332,0.8335,0.8341,0.8339,0.8345,0.8348,0.8343,0.8352,0.835,0.8348,0.835,0.835,0.8333,0.834,0.8333,0.8321,0.8316,0.8313,0.8311,0.8305,0.8302,0.8331,0.8331,0.8331,0,0.8319,0.8317,0.8326,0.8322,0.8323,0.8334,0.8329,0.833,0.8334,0.8333,0.8339,0.8336,0.8339,0.8332,0.8328,0.8328,0.8327,0.8332,0.8313,0.8311,0.8309,0.8303,0.8301,0.833,0.833,0.8331,0.8331,0,0.8302,0.8301,0.8296,0.8299,0.8299,0.8295,0.8302,0.8301,0.8306,0.8311,0.8306,0.8309,0.8309,0.8308,0.8314,0.8302,0.8305,0.8311,0.8321,0.8306,0.83,0.8298,0.8329,0.8329,0.833,0.833,0,0,0.8276,0.8284,0.8282,0.8283,0.8288,0.8286,0.8282,0.8282,0.8281,0.8283,0.8279,0.8277,0.8283,0.8284,0.8289,0.8285,0.827,0.8292,0.8292,0.8287,0.8257,0.8251,0.8248,0.8275,0.8274,0.8274,0.8256,0,0.826,0.8253,0.8261,0.8253,0.8251,0.8261,0.8257,0.8259,0.8263,0.8262,0.8266,0.8264,0.8272,0.8273,0.8269,0.8273,0.8264,0.8274,0.8271,0.827,0.8269,0.8245,0.824,0.8223,0.8254,0.8254,0.8253,0,0.824,0.8241,0.8233,0.8237,0.8237,0.8233,0.8234,0.8233,0.8235,0.8238,0.8238,0.8245,0.8241,0.825,0.8244,0.825,0.8249,0.8251,0.8251,0.825,0.8261,0.8244,0.8218,0.8215,0.825,0.825,0.8251,0,0.8221,0.822,0.8215,0.8215,0.8221,0.8218,0.822,0.8223,0.8223,0.8223,0.8223,0.8223,0.8222,0.8222,0.8228,0.8234,0.822,0.8231,0.8222,0.8222,0.8219,0.8219,0.8191,0.8219,0.8219,0.8219,0.8219,0,0.8202,0.8196,0.8206,0.8203,0.8197,0.8205,0.8198,0.8201,0.8204,0.8201,0.821,0.8207,0.8215,0.8213,0.8218,0.8211,0.8211,0.8213,0.8214,0.8212,0.8212,0.8211,0.8212,0.8218,0.8218,0.8218,0.8218,0,0.8179,0.8186,0.8181,0.8186,0.8188,0.8183,0.8187,0.8184,0.8188,0.8185,0.8184,0.8191,0.8188,0.8194,0.8193,0.8196,0.8187,0.819,0.8186,0.8187,0.8178,0.8178,0.8149,0.8145,0.8175,0.8175,0.8175,0,0.8166,0.8162,0.8167,0.8166,0.8168,0.8166,0.8166,0.8173,0.8172,0.8175,0.8171,0.817,0.8169,0.8164,0.8169,0.8167,0.817,0.816,0.817,0.8168,0.817,0.817,0.8169,0.8158,0.8158,0.8157,0.8157,0,0.8143,0.8146,0.8145,0.8145,0.8145,0.8145,0.8146,0.8144,0.8153,0.8151,0.8149,0.8148,0.8147,0.8145,0.8144,0.8146,0.8153,0.8154,0.8152,0.8149,0.8147,0.8147,0.818,0.8154,0.8155,0.8155,0.8155,0.8155,0.8124,0.8121,0.8124,0.8123,0.8124,0.8125,0.8122,0.8126,0.8124,0.8124,0.8129,0.8125,0.8127,0.8127,0.8128,0.8125,0.813,0.8127,0.8126,0.8125,0.8123,0.8148,0.8125,0.8125,0.8125,0.8126,0.8126,0,0.8101,0.8103,0.8102,0.8103,0.8102,0.8108,0.811,0.8108,0.8105,0.8107,0.8105,0.8103,0.8101,0.8105,0.8103,0.81,0.8103,0.8099,0.8099,0.8099,0.812,0.8121,0.8097,0.8097,0.8097,0.8097,0.8097,0.8097,0.8088,0.8083,0.8086,0.8081,0.8084,0.8081,0.8081,0.8081,0.8082,0.8079,0.8077,0.808,0.8082,0.8081,0.8079,0.808,0.8079,0.8074,0.8077,0.8095,0.8098,0.8101,0.8102,0.8074,0.8074,0.8056,0.8056,0.8056]}]]